Location: Brusselsch Zeekanaal
(50.8667°N, 4.3667°E)
Time: 07:25:08
(UTC+00:00)

Lacrosse 5 rocket - Pass Details

Date: 08 November 2025
Orbit: 406 x 492 km, 57.0° (Epoch: 12 December)

Event Time Altitude Azimuth Distance (km) Brightness Sun altitude
Exits shadow 03:46:14 17° 51° (NE) 1,174 3.6 -28.5°
Drops below altitude 10° 03:47:05 10° 55° (NE) 1,512 4.3 -28.4°
Sets 03:49:13 0° 59° (ENE) 2,379 5.6 -28.1°
